Location: Chefe Valiua
(16.5342°S, 37.2214°E)
Time: 03:12:51
(UTC+00:00)

Envisat - Pass Details

Date: 17 June 2021
Orbit: 764 x 766 km, 98.2° (Epoch: 27 July)

Event Time Altitude Azimuth Distance (km) Brightness Sun altitude
Rises 02:53:17 0° 355° (N) 3,210 6.4 -15.1°
Reaches altitude 10° 02:55:43 10° 346° (NNW) 2,290 5.5 -14.6°
Maximum altitude 03:00:20 36° 280° (W) 1,193 3.6 -13.6°
Enters shadow 03:04:42 12° 215° (SW) 2,202 4.9 -12.6°
